Regional Weather Roundup
Issued by NWS

Home | Current Version | Previous Version | Graphics & Text | Print | Product List | Glossary On
Versions: 1 2 3 4 5 6 7 8 9 10 11 12 13 14 15 16 17 18 19 20 21 22 23 24 25 26 27 28 29 30 31 32 33 34 35 36 37 38 39 40 41 42 43 44 45 46 47 48 49 50
000
ASUS43 KTOP 031408
RWRKS

WEATHER ROUNDUP FOR KANSAS
NATIONAL WEATHER SERVICE GOODLAND KS
800 AM CST TUE MAR 03 2015

NOTE:  "FAIR" INDICATES FEW OR NO CLOUDS BELOW 12,000 FEET WITH NO
SIGNIFICANT WEATHER AND/OR OBSTRUCTIONS TO VISIBILITY.

KSZ001>006-013>018-027>032-041>047-031500-
NORTHWEST KANSAS

CITY           SKY/WX    TMP DP  RH WIND       PRES   REMARKS
GOODLAND       CLOUDY    31  29  92 N16       29.76R FOG     WCI  20
HAYS           CLOUDY    36  27  69 NW16      29.72R WCI  26
HILL CITY      MOCLDY    30  25  81 NW12      29.76R HAZE    WCI  20
RUSSELL        CLOUDY    39  34  82 NW16      29.70R WCI  30
$$

KSZ061>065-074>080-084>089-031500-
SOUTHWEST KANSAS

CITY           SKY/WX    TMP DP  RH WIND       PRES   REMARKS
DODGE CITY     CLOUDY    39  33  79 SW17      29.71R WCI  30
ELKHART          N/A     42  30  62 NW13        N/A
GARDEN CITY    CLOUDY    37  33  85 SW10      29.69R WCI  30
GREAT BEND     CLOUDY    39  32  75 W12       29.72R WCI  32
LIBERAL        CLOUDY    37  32  81 SW13      29.76R WCI  29
PRATT          CLOUDY    37  34  87 SW21      29.72R WCI  27
$$

KSZ066>073-081>083-090>101-031500-
SOUTHEAST KANSAS

CITY           SKY/WX    TMP DP  RH WIND       PRES   REMARKS
CHANUTE        CLOUDY    39  38  96 S21G31    29.78F FOG     WCI  29
COFFEYVILLE    CLOUDY    39  39 100 S18       29.85F FOG     WCI  30
HUTCHINSON     PTSUNNY   40  33  76 SW8       29.72S
MEDICINE LODGE   N/A     36  34  92 S7        29.77R
NEWTON         PTSUNNY   37  30  75 SW22G29   29.73R WCI  27
PARSONS        CLOUDY    40  40 100 S12G20    29.85R FOG     WCI  33
WICHITA INTL   CLOUDY    37  34  89 S17       29.75S WCI  27
WICHITA JABRA  CLOUDY    38  35  89 SW20      29.76R WCI  28
WICHITA MCCONL CLOUDY    38  35  91 S24       29.74S WCI  26
WINFIELD       CLOUDY    40  37  89 SW25G35   29.80F WCI  29
$$

KSZ007>012-019>026-033>040-048>060-102>105-031500-
NORTHEAST KANSAS

CITY           SKY/WX    TMP DP  RH WIND       PRES   REMARKS
CONCORDIA      CLOUDY    36  33  89 W8        29.69R
EMPORIA        CLOUDY    39  37  92 SW25G32   29.71F WCI  28
LAWRENCE       CLOUDY    40  37  89 SW14G21   29.71F WCI  32
MANHATTAN      PTSUNNY   40  35  83 SW17G25   29.67R WCI  31
MARYSVILLE     CLOUDY    36  34  93 SW12      29.67R WCI  27
OLATHE IND     CLOUDY    37  37 100 SW20G30   29.73F FOG     WCI  27
OLATHE EXE     CLOUDY    38  38 100 SW18G28   29.71F FOG     WCI  28
SALINA         PTSUNNY   40  33  76 SW22      29.68R WCI  30
TOPEKA BILLARD CLOUDY    42  37  82 SW12G21   29.69F
TOPEKA FORBES  CLOUDY    42  37  82 SW18G28   29.67F
$$



USA.gov is the U.S. government's official web portal to all federal, state and local government web resources and services.